QPF
0.00 0.00 0.00 0.00 0.00 0.00 0.00 0.00 0.00 0.00 0.00 0.00 0.00 0.00 0.00 0.00 0.00 0.00 0.00 0.00 0.00 0.00 0.00 0.00 0.00 0.00 0.00 0.00 0.00 0.00 0.00 0.00 0.00 0.00 0.00 0.00 0.00 0.00 0.00 0.00 0.00 0.00
0.00 0.00 0.00 0.00 0.00 0.00 0.00 0.00 0.00 0.00 0.00 0.00 0.00 0.00 0.00 0.00 0.00 0.00 0.00 0.00 0.00 0.00 0.00 0.00 0.00 0.00 0.00 0.00 0.00 0.00 0.00 0.00 0.00 0.00 0.00 0.00 0.00 0.00 0.00 0.00 0.00 0.00
0.00 0.00 0.00 0.00 0.00 0.00 0.00 0.00 0.00 0.00 0.00 0.00 0.00 0.00 0.00 0.00 0.00 0.00 0.00 0.00 0.00 0.00 0.00 0.00 0.00 0.00 0.00 0.00 0.00 0.00 0.00 0.00 0.00 0.00 0.00 0.00 0.00 0.00 0.00 0.00 0.00 0.00
0.00 0.00 0.00 0.00 0.00 0.00 0.00 0.00 0.00 0.00 0.00 0.00 0.00 0.00 0.00 0.00 0.00 0.00 0.00 0.00 0.00 0.00 0.00 0.00 0.00 0.00 0.00 0.00 0.00 0.00 0.00 0.00 0.00 0.00 0.00 0.00 0.00 0.00 0.00 0.00 0.00 0.00
0.00 0.00 0.00 0.00 0.00 0.00 0.00 0.00 0.00 0.00 0.00 0.00 0.00 0.00 0.00 0.00 0.00 0.00 0.00 0.00 0.00 0.00 0.00 0.00 0.00 0.00 0.00 0.00 0.00 0.00 0.00 0.00 0.00 0.00 0.00 0.00 0.00 0.00 0.00 0.00 0.00 0.00
0.00 0.00 0.00 0.00 0.00 0.00 0.00 0.00 0.00 0.00 0.00 0.00 0.00 0.00 0.00 0.00 0.00 0.00 0.00 0.00 0.00 0.00 0.00 0.00 0.00 0.00 0.00 0.00 0.00 0.00 0.00 0.00 0.00 0.00 0.00 0.00 0.00 0.00 0.00 0.00 0.00 0.00
0.00 0.00 0.00 0.00 0.00 0.00 0.00 0.00 0.00 0.00 0.00 0.00 0.00 0.00 0.00 0.00 0.00 0.00 0.00 0.00 0.00 0.00 0.00 0.00 0.00 0.00 0.00 0.00 0.00 0.00 0.00 0.00 0.00 0.00 0.00 0.00 0.00 0.00 0.00 0.00 0.00 0.00
0.00 0.00 0.00 0.00 0.00 0.00 0.00 0.00 0.00 0.00 0.00 0.00 0.00 0.00 0.00 0.00 0.00 0.00 0.00 0.00 0.00 0.00 0.00 0.00 0.00 0.00 0.00 0.00 0.00 0.00 0.00 0.00 0.00 0.00 0.00 0.00 0.00 0.00 0.00 0.00 0.00 0.00
0.00 0.00 0.00 0.00 0.00 0.00 0.00 0.00 0.00 0.00 0.00 0.00 0.00 0.00 0.00 0.00 0.00 0.00 0.00 0.00 0.00 0.00 0.00 0.00 0.00 0.00 0.00 0.00 0.00 0.00 0.00 0.00 0.00 0.00 0.00 0.00 0.00 0.00 0.00 0.00 0.00 0.00
0.00 0.00 0.00 0.00 0.00 0.00 0.00 0.00 0.00 0.00 0.00 0.00 0.00 0.00 0.00 0.00 0.00 0.00 0.00 0.00 0.00 0.00 0.00 0.00 0.00 0.00 0.00 0.00 0.00 0.00 0.00 0.00 0.00 0.00 0.00 0.00 0.00 0.00 0.00 0.00 0.00 0.00
0.00 0.00 0.00 0.00 0.00 0.00 0.00 0.00 0.00 0.00 0.00 0.00 0.00 0.00 0.00 0.00 0.00 0.00 0.00 0.00 0.00 0.00 0.00 0.00 0.00 0.00 0.00 0.00 0.00 0.00 0.00 0.00 0.00 0.00 0.00 0.00 0.00 0.00 0.00 0.00 0.00 0.00
0.00 0.00 0.00 0.00 0.00 0.00 0.00 0.00 0.00 0.00 0.00 0.00 0.00 0.00 0.00 0.00 0.00 0.00 0.00 0.00 0.00 0.00 0.00 0.00 0.00 0.00 0.00 0.00 0.00 0.00 0.00 0.00 0.00 0.00 0.00 0.00 0.00 0.00 0.00 0.00 0.00 0.00
0.00 0.00 0.00 0.00 0.00 0.00 0.00 0.00 0.00 0.00 0.00 0.00 0.00 0.00 0.00 0.00 0.00 0.00 0.00 0.00 0.00 0.00 0.00 0.00 0.00 0.00 0.00 0.00 0.00 0.00 0.00 0.00 0.00 0.00 0.00 0.00 0.00 0.00 0.00 0.00 0.00 0.00
0.00 0.00 0.00 0.00 0.00 0.00 0.00 0.00 0.00 0.00 0.00 0.00 0.00 0.00 0.00 0.00 0.00 0.00 0.00 0.00 0.00 0.00 0.00 0.00 0.00 0.00 0.00 0.00 0.00 0.00 0.00 0.00 0.00 0.00 0.00 0.00 0.00 0.00 0.00 0.00 0.00 0.00
0.00 0.00 0.00 0.00 0.00 0.00 0.00 0.00 0.00 0.00 0.00 0.00 0.00 0.00 0.00 0.00 0.00 0.00 0.00 0.00 0.00 0.00 0.00 0.00 0.00 0.00 0.00 0.00 0.00 0.00 0.00 0.00 0.00 0.00 0.00 0.00 0.00 0.00 0.00 0.00 0.00 0.00
0.00 0.00 0.00 0.00 0.00 0.00 0.00 0.00 0.00 0.00 0.00 0.00 0.00 0.00 0.00 0.00 0.00 0.00 0.00 0.00 0.00 0.00 0.00 0.00 0.00 0.00 0.00 0.00 0.00 0.00 0.00 0.00 0.00 0.00 0.00 0.00 0.00 0.00 0.00 0.00 0.00 0.00
0.00 0.00 0.00 0.00 0.00 0.00 0.00 0.00 0.00 0.00 0.00 0.00 0.00 0.00 0.00 0.00 0.00 0.00 0.00 0.00 0.00 0.00 0.00 0.00 0.00 0.00 0.00 0.00 0.00 0.00 0.00 0.00 0.00 0.00 0.00 0.00 0.00 0.00 0.00 0.00 0.00 0.00
0.00 0.00 0.00 0.00 0.00 0.00 0.00 0.00 0.00 0.00 0.00 0.00 0.00 0.00 0.00 0.00 0.00 0.00 0.00 0.00 0.00 0.00 0.00 0.00 0.00 0.00 0.00 0.00 0.00 0.00 0.00 0.00 0.00 0.00 0.00 0.00 0.00 0.00 0.00 0.00 0.00 0.00
0.00 0.00 0.00 0.00 0.00 0.00 0.00 0.00 0.00 0.00 0.00 0.00 0.00 0.00 0.00 0.00 0.00 0.00 0.00 0.00 0.00 0.00 0.00 0.00 0.00 0.00 0.00 0.00 0.00 0.00 0.00 0.00 0.00 0.00 0.00 0.00 0.00 0.00 0.00 0.00 0.00 0.00
0.00 0.00 0.00 0.00 0.00 0.00 0.00 0.00 0.00 0.00 0.00 0.00 0.00 0.00 0.00 0.00 0.00 0.00 0.00 0.00 0.00 0.00 0.00 0.00 0.00 0.00 0.00 0.00 0.00 0.00 0.00 0.00 0.00 0.00 0.00 0.00 0.00 0.00 0.00 0.00 0.00 0.02
0.00 0.00 0.00 0.00 0.00 0.00 0.00 0.00 0.00 0.00 0.00 0.00 0.00 0.00 0.00 0.00 0.00 0.00 0.00 0.00 0.00 0.00 0.00 0.00 0.00 0.00 0.00 0.00 0.00 0.00 0.00 0.00 0.00 0.00 0.00 0.00 0.00 0.00 0.00 0.00 0.10 0.46
0.00 0.00 0.00 0.00 0.00 0.00 0.00 0.00 0.00 0.00 0.00 0.00 0.00 0.00 0.00 0.00 0.00 0.00 0.00 0.00 0.00 0.00 0.00 0.00 0.00 0.00 0.00 0.00 0.00 0.00 0.00 0.00 0.00 0.00 0.00 0.00 0.00 0.00 0.00 0.00 0.11 0.31
0.00 0.00 0.00 0.00 0.00 0.00 0.00 0.00 0.00 0.00 0.00 0.00 0.00 0.00 0.00 0.00 0.00 0.00 0.00 0.00 0.00 0.00 0.00 0.00 0.00 0.00 0.00 0.00 0.00 0.00 0.00 0.00 0.00 0.00 0.00 0.00 0.00 0.00 0.00 0.06 0.14 0.15
0.00 0.00 0.00 0.00 0.00 0.00 0.00 0.00 0.00 0.00 0.00 0.00 0.00 0.00 0.00 0.00 0.00 0.00 0.00 0.00 0.00 0.00 0.00 0.00 0.00 0.00 0.00 0.00 0.00 0.00 0.00 0.00 0.00 0.00 0.01 0.00 0.00 0.00 0.03 0.01 0.01 0.00
0.00 0.00 0.00 0.00 0.00 0.00 0.00 0.00 0.00 0.00 0.00 0.00 0.00 0.00 0.00 0.00 0.00 0.00 0.00 0.00 0.00 0.00 0.00 0.00 0.00 0.00 0.00 0.00 0.00 0.00 0.00 0.00 0.00 0.00 0.00 0.00 0.00 0.00 0.00 0.00 0.00 0.00
0.00 0.00 0.00 0.00 0.00 0.00 0.00 0.00 0.00 0.00 0.00 0.00 0.00 0.00 0.00 0.00 0.00 0.00 0.00 0.00 0.00 0.00 0.00 0.00 0.00 0.00 0.00 0.00 0.00 0.00 0.00 0.00 0.00 0.00 0.00 0.00 0.00 0.00 0.00 0.02 0.01 0.01
MSLP
1011.24 1011.56 1011.92 1012.24 1012.52 1012.72 1013.16 1013.56 1013.76 1014.08 1014.28 1014.44 1014.76 1014.96 1015.16 1015.20 1015.48 1015.80 1016.04 1016.24 1016.36 1016.56 1016.68 1016.84 1016.96 1017.20 1017.44 1017.68 1017.92 1018.16 1018.36 1018.52 1018.68 1018.76 1018.96 1019.12 1019.28 1019.40 1019.60 1019.76 1019.96 1020.00
1010.92 1011.12 1011.36 1011.76 1012.16 1012.40 1012.60 1012.76 1013.12 1013.48 1013.80 1014.00 1014.12 1014.36 1014.64 1014.96 1015.16 1015.44 1015.80 1016.08 1016.24 1016.36 1016.44 1016.64 1016.80 1017.00 1017.24 1017.56 1017.76 1018.04 1018.24 1018.40 1018.60 1018.56 1018.84 1019.04 1019.12 1019.28 1019.40 1019.52 1019.72 1019.84
1010.52 1010.84 1011.12 1011.48 1011.68 1011.92 1012.12 1012.36 1012.64 1012.92 1013.24 1013.44 1013.68 1014.00 1014.36 1014.52 1014.92 1015.16 1015.44 1015.76 1016.04 1016.20 1016.32 1016.44 1016.64 1016.80 1017.04 1017.28 1017.52 1017.76 1017.96 1018.20 1018.40 1018.40 1018.64 1018.88 1018.92 1019.12 1019.20 1019.32 1019.52 1019.68
1010.04 1010.20 1010.52 1010.76 1011.08 1011.44 1011.68 1012.12 1012.36 1012.60 1012.84 1013.28 1013.52 1013.60 1013.88 1014.16 1014.48 1014.92 1015.24 1015.48 1015.80 1015.96 1016.08 1016.24 1016.40 1016.60 1016.80 1017.04 1017.28 1017.56 1017.68 1017.84 1017.92 1018.16 1018.52 1018.68 1018.80 1018.88 1019.04 1019.16 1019.32 1019.52
1009.60 1009.92 1010.12 1010.40 1010.64 1010.96 1011.36 1011.76 1012.04 1012.24 1012.52 1012.68 1013.00 1013.32 1013.68 1013.96 1014.28 1014.64 1014.96 1015.24 1015.44 1015.68 1015.88 1016.08 1016.20 1016.40 1016.60 1016.88 1017.04 1017.36 1017.52 1017.72 1017.84 1018.08 1018.40 1018.60 1018.60 1018.76 1018.84 1019.04 1019.20 1019.40
1009.16 1009.40 1009.68 1010.00 1010.32 1010.72 1011.12 1011.32 1011.48 1011.80 1012.12 1012.52 1012.72 1012.92 1013.20 1013.44 1013.80 1014.16 1014.52 1014.92 1015.12 1015.32 1015.56 1015.76 1016.00 1016.12 1016.32 1016.56 1016.84 1017.04 1017.24 1017.52 1017.72 1017.96 1018.28 1018.40 1018.52 1018.56 1018.64 1018.84 1019.04 1019.24
1008.72 1009.08 1009.40 1009.64 1010.04 1010.24 1010.60 1010.80 1011.08 1011.32 1011.64 1011.88 1012.28 1012.68 1012.84 1013.24 1013.48 1013.72 1014.04 1014.36 1014.68 1014.96 1015.16 1015.44 1015.68 1015.92 1016.08 1016.32 1016.60 1016.84 1017.00 1017.20 1017.48 1017.76 1018.04 1018.20 1018.32 1018.48 1018.52 1018.64 1018.84 1019.00
1008.24 1008.52 1008.80 1009.12 1009.52 1009.80 1010.12 1010.40 1010.72 1011.00 1011.24 1011.68 1012.08 1012.24 1012.48 1012.84 1013.08 1013.28 1013.56 1013.92 1014.28 1014.56 1014.76 1014.96 1015.20 1015.44 1015.68 1015.92 1016.28 1016.60 1016.84 1017.04 1017.32 1017.56 1017.84 1018.04 1018.16 1018.32 1018.40 1018.48 1018.60 1018.80
1007.72 1008.08 1008.36 1008.72 1009.08 1009.36 1009.72 1010.00 1010.32 1010.64 1010.92 1011.36 1011.68 1011.96 1012.12 1012.36 1012.68 1012.88 1013.12 1013.44 1013.80 1014.08 1014.32 1014.56 1014.76 1015.00 1015.24 1015.52 1015.84 1016.16 1016.48 1016.76 1016.96 1017.24 1017.52 1017.80 1018.00 1018.04 1018.16 1018.28 1018.52 1018.60
1007.28 1007.52 1007.96 1008.24 1008.64 1008.84 1009.24 1009.52 1009.84 1010.20 1010.48 1010.92 1011.24 1011.52 1011.92 1012.04 1012.24 1012.48 1012.76 1013.08 1013.36 1013.68 1013.88 1014.08 1014.36 1014.60 1014.88 1015.08 1015.36 1015.72 1016.08 1016.40 1016.64 1016.88 1017.12 1017.32 1017.52 1017.68 1017.88 1018.04 1018.16 1018.40
1006.80 1007.08 1007.48 1007.76 1008.08 1008.36 1008.72 1009.04 1009.36 1009.68 1010.00 1010.40 1010.80 1011.16 1011.44 1011.76 1012.04 1012.12 1012.44 1012.68 1012.92 1013.16 1013.44 1013.68 1013.84 1014.08 1014.48 1014.76 1015.04 1015.28 1015.60 1015.96 1016.28 1016.52 1016.72 1016.92 1017.08 1017.24 1017.44 1017.64 1017.84 1017.92
1006.24 1006.56 1006.80 1007.12 1007.52 1007.84 1008.20 1008.52 1008.80 1009.16 1009.52 1009.84 1010.16 1010.68 1011.00 1011.28 1011.60 1011.84 1011.96 1012.16 1012.28 1012.48 1012.72 1013.00 1013.24 1013.60 1013.92 1014.24 1014.60 1014.96 1015.32 1015.60 1015.80 1016.08 1016.28 1016.52 1016.76 1016.88 1017.00 1017.16 1017.36 1017.52
1005.64 1005.84 1006.12 1006.60 1007.00 1007.32 1007.64 1007.96 1008.28 1008.56 1008.96 1009.36 1009.60 1010.08 1010.56 1010.92 1011.12 1011.36 1011.44 1011.56 1011.72 1011.92 1012.24 1012.48 1012.84 1013.12 1013.48 1013.80 1014.16 1014.56 1014.92 1015.20 1015.44 1015.72 1016.00 1016.24 1016.32 1016.44 1016.56 1016.76 1016.92 1017.08
1004.80 1005.12 1005.64 1006.00 1006.40 1006.80 1007.12 1007.40 1007.80 1008.16 1008.44 1008.80 1009.16 1009.60 1009.88 1010.20 1010.52 1010.80 1010.92 1011.08 1011.24 1011.44 1011.64 1011.96 1012.40 1012.76 1013.04 1013.32 1013.68 1014.00 1014.40 1014.68 1014.96 1015.32 1015.64 1015.88 1015.96 1016.08 1016.24 1016.44 1016.56 1016.68
1004.20 1004.72 1005.12 1005.60 1006.00 1006.44 1006.80 1007.16 1007.48 1007.76 1008.12 1008.44 1008.68 1009.00 1009.24 1009.48 1009.80 1010.16 1010.52 1010.76 1010.84 1011.04 1011.36 1011.64 1011.96 1012.20 1012.40 1012.72 1013.16 1013.52 1013.76 1014.20 1014.56 1014.88 1015.16 1015.44 1015.64 1015.84 1016.04 1016.20 1016.32 1016.40
1003.68 1004.16 1004.60 1005.08 1005.60 1005.96 1006.32 1006.68 1007.04 1007.40 1007.76 1008.08 1008.28 1008.48 1008.72 1009.00 1009.36 1009.64 1009.88 1010.16 1010.52 1010.76 1011.04 1011.28 1011.44 1011.48 1011.60 1011.96 1012.20 1012.60 1013.16 1013.60 1014.04 1014.36 1014.60 1014.88 1015.28 1015.64 1015.84 1015.92 1015.96 1016.12
1003.32 1003.72 1004.12 1004.64 1004.84 1005.28 1005.68 1006.12 1006.64 1007.04 1007.36 1007.64 1007.84 1008.08 1008.28 1008.52 1008.84 1009.16 1009.32 1009.56 1009.92 1010.28 1010.64 1010.76 1010.80 1010.80 1011.04 1011.48 1011.80 1012.08 1012.52 1013.04 1013.44 1013.80 1014.04 1014.40 1014.76 1015.16 1015.40 1015.56 1015.72 1015.92
1002.60 1003.12 1003.68 1003.96 1004.32 1004.68 1005.00 1005.48 1005.96 1006.40 1006.76 1007.04 1007.32 1007.60 1007.76 1008.00 1008.36 1008.40 1008.64 1009.00 1009.40 1009.76 1010.04 1010.12 1010.16 1010.16 1010.64 1011.00 1011.36 1011.76 1012.04 1012.40 1012.80 1013.20 1013.56 1013.96 1014.28 1014.56 1014.76 1015.04 1015.36 1015.84
1002.12 1002.64 1002.96 1003.36 1003.64 1003.96 1004.48 1004.96 1005.36 1005.76 1006.12 1006.44 1006.72 1006.80 1007.24 1007.60 1007.52 1007.84 1008.20 1008.52 1008.92 1009.28 1009.44 1009.48 1009.60 1009.68 1010.20 1010.56 1010.96 1011.36 1011.64 1011.88 1012.28 1012.60 1013.04 1013.44 1013.72 1014.00 1014.28 1014.64 1015.12 1015.96
1001.60 1002.04 1002.44 1002.68 1003.08 1003.56 1004.00 1004.44 1004.80 1005.04 1005.20 1005.48 1005.88 1006.28 1006.64 1006.84 1007.12 1007.44 1007.72 1008.12 1008.36 1008.64 1008.84 1008.96 1009.12 1009.24 1009.80 1010.24 1010.60 1011.00 1011.24 1011.56 1011.76 1012.16 1012.48 1012.80 1013.16 1013.44 1013.76 1014.20 1014.88 1015.64
1001.20 1001.52 1001.96 1002.40 1002.80 1003.20 1003.60 1003.96 1004.16 1004.44 1004.76 1004.92 1005.24 1005.60 1006.00 1006.28 1006.56 1007.00 1007.16 1007.44 1007.76 1008.08 1008.48 1008.64 1008.52 1008.80 1009.40 1009.88 1010.24 1010.56 1010.88 1011.28 1011.44 1011.80 1012.20 1012.44 1012.64 1012.92 1013.24 1013.68 1014.32 1014.36
1000.48 1001.04 1001.56 1002.04 1002.48 1002.92 1003.32 1003.60 1003.76 1003.88 1004.16 1004.32 1004.76 1005.00 1005.16 1005.48 1005.88 1006.16 1006.60 1007.00 1007.28 1007.64 1008.00 1008.20 1008.04 1008.48 1009.00 1009.48 1009.80 1010.20 1010.68 1011.16 1011.32 1011.64 1011.88 1012.08 1012.28 1012.48 1012.80 1013.20 1013.52 1013.76
999.80 1000.44 1001.16 1001.68 1002.08 1002.56 1002.80 1002.96 1003.20 1003.40 1003.60 1003.84 1004.36 1004.48 1004.84 1005.12 1005.32 1005.60 1005.92 1006.40 1006.84 1007.08 1007.40 1007.52 1007.72 1008.08 1008.56 1009.00 1009.40 1009.96 1010.68 1010.92 1011.16 1011.32 1011.52 1011.76 1011.88 1011.96 1012.40 1012.72 1013.00 1013.24
999.52 1000.24 1001.00 1001.32 1001.56 1001.72 1001.76 1001.96 1002.24 1002.64 1003.00 1003.12 1003.60 1004.00 1004.40 1004.40 1004.72 1005.24 1005.44 1005.72 1006.08 1006.40 1006.52 1006.96 1007.16 1007.60 1008.08 1008.56 1009.16 1009.76 1010.04 1010.36 1010.68 1010.92 1011.12 1011.32 1011.48 1011.76 1012.00 1012.28 1012.40 1012.68
998.92 999.32 999.68 1000.04 1000.52 1000.68 1001.04 1001.52 1001.72 1001.96 1002.28 1002.76 1003.08 1003.32 1003.52 1003.80 1004.32 1004.68 1004.96 1005.20 1005.32 1005.60 1006.00 1006.52 1006.76 1007.24 1007.80 1008.32 1008.92 1009.40 1009.72 1009.80 1010.12 1010.48 1010.88 1011.00 1011.20 1011.60 1011.76 1011.96 1012.24 1012.40
998.12 998.56 998.84 999.20 999.48 999.96 1000.52 1000.92 1001.28 1001.80 1002.00 1002.16 1002.40 1002.72 1003.24 1003.64 1003.96 1004.24 1004.60 1004.76 1004.88 1005.28 1005.64 1005.92 1006.28 1006.76 1007.56 1008.08 1008.56 1008.92 1009.08 1009.16 1009.48 1010.12 1010.48 1010.60 1010.84 1011.28 1011.80 1012.00 1012.16 1012.28
Thickness
5814 5813 5811 5809 5806 5804 5802 5800 5799 5796 5795 5794 5792 5790 5789 5788 5786 5784 5781 5781 5779 5778 5777 5776 5774 5773 5771 5769 5767 5765 5763 5762 5760 5759 5757 5753 5751 5749 5747 5744 5742 5740
5816 5814 5812 5810 5808 5806 5805 5804 5801 5799 5797 5796 5794 5793 5792 5789 5787 5785 5782 5780 5778 5778 5777 5776 5775 5774 5771 5769 5767 5765 5764 5762 5761 5760 5757 5754 5752 5750 5747 5745 5742 5740
5816 5815 5813 5811 5810 5808 5807 5806 5803 5802 5800 5797 5796 5794 5793 5790 5788 5786 5783 5780 5778 5777 5777 5776 5775 5774 5772 5770 5768 5766 5765 5763 5762 5761 5758 5755 5754 5751 5749 5746 5743 5741
5817 5816 5815 5813 5812 5810 5808 5806 5804 5803 5801 5798 5797 5795 5793 5792 5790 5786 5784 5781 5779 5778 5777 5776 5775 5774 5772 5771 5769 5767 5766 5765 5763 5762 5758 5755 5754 5752 5750 5747 5744 5741
5819 5817 5816 5814 5812 5810 5808 5807 5805 5804 5802 5799 5798 5796 5794 5792 5791 5788 5784 5782 5780 5778 5777 5776 5775 5774 5773 5771 5770 5768 5766 5765 5764 5761 5758 5755 5754 5753 5751 5748 5745 5741
5820 5818 5816 5814 5813 5811 5809 5808 5807 5805 5803 5801 5798 5796 5795 5793 5791 5789 5786 5783 5781 5780 5778 5776 5775 5774 5773 5772 5770 5769 5767 5765 5763 5761 5757 5755 5754 5753 5751 5748 5745 5742
5821 5819 5818 5815 5813 5811 5810 5809 5808 5806 5804 5801 5799 5797 5796 5794 5792 5790 5788 5785 5783 5781 5780 5778 5776 5775 5774 5772 5771 5770 5768 5765 5763 5760 5757 5756 5754 5752 5750 5748 5745 5742
5823 5821 5819 5817 5814 5813 5811 5809 5807 5806 5804 5801 5799 5798 5797 5794 5793 5791 5789 5787 5785 5783 5782 5780 5778 5777 5775 5773 5772 5769 5767 5765 5763 5760 5756 5755 5753 5750 5749 5747 5744 5742
5825 5824 5821 5819 5816 5814 5812 5810 5808 5806 5803 5801 5799 5797 5797 5795 5793 5792 5790 5789 5786 5785 5784 5782 5781 5779 5777 5775 5773 5770 5768 5765 5763 5760 5757 5754 5752 5750 5749 5746 5744 5741
5828 5826 5823 5820 5818 5816 5813 5811 5808 5806 5804 5802 5800 5797 5796 5795 5794 5792 5790 5789 5788 5787 5786 5784 5783 5781 5778 5777 5775 5772 5769 5766 5764 5761 5758 5755 5753 5751 5749 5746 5744 5741
5830 5828 5826 5824 5821 5818 5815 5812 5809 5807 5804 5803 5800 5798 5796 5795 5793 5792 5791 5790 5790 5789 5788 5787 5785 5783 5780 5778 5776 5773 5770 5768 5764 5762 5759 5757 5754 5752 5750 5747 5744 5741
5833 5831 5829 5826 5823 5820 5817 5814 5812 5809 5806 5805 5802 5800 5797 5795 5794 5793 5793 5793 5792 5792 5791 5789 5788 5786 5783 5780 5776 5774 5771 5768 5766 5763 5760 5757 5755 5753 5751 5748 5745 5742
5836 5835 5833 5829 5827 5824 5820 5818 5816 5813 5810 5807 5805 5802 5799 5798 5796 5795 5795 5795 5795 5794 5793 5792 5790 5788 5785 5782 5778 5775 5772 5769 5767 5764 5760 5758 5755 5753 5751 5748 5746 5743
5841 5838 5835 5832 5829 5826 5823 5821 5818 5815 5812 5809 5807 5805 5803 5801 5800 5798 5797 5797 5796 5796 5795 5793 5791 5789 5787 5784 5780 5777 5774 5772 5768 5765 5762 5758 5756 5754 5751 5749 5746 5744
5844 5840 5837 5834 5831 5827 5825 5822 5819 5816 5813 5811 5809 5808 5806 5804 5803 5800 5798 5797 5797 5796 5795 5794 5792 5791 5790 5787 5783 5780 5777 5774 5770 5766 5763 5759 5756 5753 5751 5748 5746 5744
5845 5842 5839 5836 5833 5830 5826 5823 5820 5817 5813 5811 5810 5809 5808 5806 5804 5803 5802 5800 5798 5796 5795 5794 5794 5794 5793 5790 5787 5784 5780 5776 5771 5768 5765 5761 5757 5753 5750 5748 5746 5743
5847 5844 5840 5838 5836 5833 5830 5826 5822 5818 5815 5813 5811 5811 5810 5808 5806 5805 5805 5803 5801 5798 5796 5795 5796 5797 5794 5791 5788 5786 5782 5777 5773 5770 5767 5763 5758 5755 5751 5749 5746 5742
5849 5846 5842 5840 5839 5836 5833 5828 5824 5820 5818 5815 5813 5813 5811 5809 5808 5808 5807 5805 5802 5799 5798 5798 5798 5798 5795 5791 5788 5785 5783 5780 5776 5772 5769 5764 5761 5757 5754 5751 5746 5739
5851 5848 5846 5843 5842 5839 5834 5831 5826 5823 5822 5819 5816 5815 5812 5811 5811 5810 5808 5805 5802 5801 5800 5800 5799 5798 5795 5792 5789 5786 5784 5781 5778 5775 5770 5767 5763 5759 5756 5752 5745 5736
5852 5850 5848 5845 5843 5839 5834 5832 5829 5826 5825 5823 5820 5816 5814 5813 5812 5810 5808 5806 5804 5803 5801 5800 5800 5799 5796 5792 5789 5786 5784 5782 5779 5776 5773 5769 5765 5762 5758 5753 5746 5739
5853 5851 5848 5845 5842 5838 5834 5832 5831 5829 5827 5825 5823 5819 5817 5816 5814 5811 5810 5808 5807 5804 5802 5800 5802 5800 5796 5792 5789 5787 5783 5781 5779 5776 5773 5771 5767 5764 5760 5755 5749 5745
5856 5852 5848 5845 5841 5837 5834 5832 5831 5831 5829 5826 5823 5821 5820 5818 5815 5814 5812 5809 5806 5804 5802 5801 5803 5801 5796 5793 5790 5787 5781 5778 5777 5776 5773 5770 5767 5765 5762 5757 5753 5749
5858 5852 5847 5843 5840 5837 5835 5834 5834 5832 5830 5827 5824 5822 5820 5818 5816 5815 5813 5810 5807 5805 5804 5803 5803 5800 5796 5793 5790 5784 5779 5776 5776 5775 5773 5771 5768 5766 5763 5759 5755 5751
5856 5850 5845 5842 5840 5839 5838 5837 5835 5833 5832 5829 5826 5823 5821 5820 5818 5815 5812 5811 5809 5807 5806 5805 5803 5800 5797 5793 5788 5782 5778 5777 5776 5774 5772 5770 5768 5765 5762 5759 5755 5751
5855 5852 5848 5846 5845 5843 5840 5836 5835 5833 5832 5829 5826 5824 5823 5820 5817 5813 5811 5811 5811 5809 5806 5803 5801 5800 5795 5790 5785 5780 5777 5778 5776 5773 5771 5769 5767 5763 5760 5757 5754 5750
5856 5853 5851 5850 5847 5844 5839 5835 5833 5832 5830 5828 5826 5825 5822 5818 5815 5813 5811 5810 5810 5808 5805 5802 5802 5798 5792 5788 5783 5779 5778 5779 5776 5773 5771 5769 5765 5761 5756 5753 5751 5748